This is the latest recevied weather packets stored in our database for station/object N4DBJ. If no packets are shown the sender has not sent any weather packets the latest 10 day(s).
| Time | Temp. | Humidity | Pressure | Rain* | Wind** | Luminosity | Snow |
|---|---|---|---|---|---|---|---|
| 1777943966 | 18.89° C | 64% | 1007.2 hPa | 0 mm | - | 0 W/m² | - |
| 1777943662 | 19.44° C | 61% | 1007.1 hPa | 0 mm | - | 0 W/m² | - |
| 1777943359 | 20° C | 59% | 1007.3 hPa | 0 mm | - | 0 W/m² | - |
| 1777943055 | 20.56° C | 59% | 1007.1 hPa | 0 mm | - | 0 W/m² | - |
| 1777942751 | 21.11° C | 56% | 1007 hPa | 0 mm | - | 0 W/m² | - |
| 1777942448 | 21.67° C | 54% | 1007.1 hPa | 0 mm | - | 0 W/m² | - |
| 1777942145 | 21.11° C | 54% | 1007 hPa | 0 mm | - | 0 W/m² | - |
| 1777941842 | 21.67° C | 55% | 1006.9 hPa | 0 mm | - | 0 W/m² | - |
| 1777941539 | 22.22° C | 54% | 1007 hPa | 0 mm | - | 1 W/m² | - |
| 1777941236 | 22.22° C | 51% | 1007.1 hPa | 0 mm | - | 3 W/m² | - |
| 1777940932 | 22.78° C | 50% | 1007 hPa | 0 mm | - | 4 W/m² | - |
| 1777940629 | 22.78° C | 49% | 1007.2 hPa | 0 mm | - | 7 W/m² | - |
| 1777940328 | 23.33° C | 49% | 1007 hPa | 0 mm | - | 10 W/m² | - |
| 1777940024 | 23.33° C | 49% | 1007 hPa | 0 mm | - | 13 W/m² | - |
| 1777939721 | 23.33° C | 48% | 1007 hPa | 0 mm | - | 16 W/m² | - |
| 1777939419 | 23.89° C | 47% | 1007.3 hPa | 0 mm | - | 19 W/m² | - |
| 1777939115 | 23.89° C | 47% | 1007.2 hPa | 0 mm | - | 23 W/m² | - |
| 1777938813 | 23.89° C | 46% | 1007.1 hPa | 0 mm | - | 26 W/m² | - |
| 1777938509 | 23.89° C | 46% | 1007.2 hPa | 0 mm | - | 29 W/m² | - |
| 1777938207 | 24.44° C | 47% | 1007.1 hPa | 0 mm | - | 32 W/m² | - |
| 1777937903 | 24.44° C | 46% | 1007.3 hPa | 0 mm | - | 34 W/m² | - |
| 1777937599 | 25° C | 45% | 1007.3 hPa | 0 mm | - | 37 W/m² | - |
| 1777937296 | 25° C | 44% | 1007.4 hPa | 0 mm | - | 46 W/m² | - |
| 1777936993 | 25° C | 44% | 1007.4 hPa | 0 mm | - | 52 W/m² | - |
| 1777936690 | 25.56° C | 44% | 1007.4 hPa | 0 mm | - | 93 W/m² | - |
* Rain latest hour (hover to see other rain measurements)
** Current wind speed in m/s (hover to see current wind gust speed)